Weather WX

World > North America > United States > Missouri

Kennett, Missouri Regional Weather

Lat: 36.24N, Lon: 90.05W
Wx Zone: MOZ113
Feedback

Kennett, MO Regional Weather

Expires:201906182300;;700417
ASUS43 KLSX 182207
RWRMO 

WEATHER SUMMARY FOR MISSOURI
NATIONAL WEATHER SERVICE SPRINGFIELD MO
500 PM CDT TUE JUN 18 2019

NOTE: "FAIR" INDICATES FEW OR NO CLOUDS BELOW 12,000 FEET WITH NO
       SIGNIFICANT WEATHER AND/OR OBSTRUCTIONS TO VISIBILITY.
       CURRENT SKY AND/OR WEATHER CONDITIONS ARE NOT AVAILABLE FOR
       CHILLICOTHE AND FARMINGTON.


MOZ072>076-082>087-097>100-106>115-182300-
...SOUTH CENTRAL AND SOUTHEAST MISSOURI...
  
CITY           SKY/WX    TMP DP  RH WIND       PRES   REMARKS
CAPE GIRARDEAU PTSUNNY   83  69  62 E5        29.82F                  
FARMINGTON     MOSUNNY   82  69  64 CALM      29.86F                  
POPLAR BLUFF   PTSUNNY   83  69  62 CALM      29.82F                  
WEST PLAINS    SUNNY     81  68  64 VRB5      29.88F                  
                                       
$$
  

SKY/WX - Weather  TMP - Temperature  DP - Dew Point  RH - Relative Humidity
WIND - Wind Direction/Speed PRES - Barometric Pressure VSB - Visibility
WCI - Wind Chill Index E13G22 Wind - East Wind 13 mph/Gusts of 22 mph